Terminal Aerodrome Forecast
Issued by NWS Billings, MT

Home | Current Version | Previous Version | Graphics & Text | Print | Product List | Glossary On
Versions: 1 2 3 4 5 6 7 8 9 10 11 12 13 14 15 16 17 18 19 20 21 22 23 24 25 26 27 28 29 30 31 32 33 34 35 36 37
414
FTUS45 KBYZ 030532
TAFMLS
TAF
KMLS 030532Z 0306/0406 VRB06KT P6SM VCSH SCT035 BKN070
     FM031900 27015G25KT P6SM SCT250
     FM040100 24008KT P6SM SCT020 SCT150=

USA.gov is the U.S. government's official web portal to all federal, state and local government web resources and services.